Погода в Плешеве

Польша     51°53′37″N   17°47′19″E
темп.,
°C
ветер,
м/с
пор.,
м/с
влажн.,
%
обл.,
%
осадки,
мм/ч
давл.,
гПа
погр.,
м
22 мая, вс
вс2223:00+12зсз714845 0.3 1015696
02:00+10з613895 0.3 1015472
05:00+9зсз6139425 0.0 1014449
08:00+11зсз698596 0.1 1014605
11:00+15сз795967 0.1 10141639
14:00+16сз695769 0.4 10141695
17:00+15сз586776 0.3 10141148
20:00+13сз347419 0.4 101476
23 мая, пн
пн2323:00+11ссз23725 0.0 101541
02:00+7в33904 0.0 101543
05:00+6в33935 0.0 101539
08:00+11вюв23715 0.0 1015353
11:00+16вюв335077 0.0 10141192
14:00+18юв444131 0.0 10121556
17:00+18юв454693 0.0 10111690
20:00+15вюв5116786 0.0 1009367
24 мая, вт
вт2423:00+12вюв6147195 0.0 1009312
02:00+11юв61475100 0.0 1008357
05:00+12юв61371100 0.0 1007372
08:00+13ююв51072100 0.0 1007323
11:00+14юв3886100 1.2 1008240
14:00+18ююв447898 1.3 1008558
17:00+18ю458389 0.0 1009390
20:00+16ю4691100 2.1 1010158
25 мая, ср
ср2523:00+14ююз3796100 0.3 1011128
02:00+14з2393100 0.3 101151
05:00+14ссз2293100 0.0 101221
08:00+14сз3696100 0.6 1013227
11:00+14сз3697100 1.7 1013321
14:00+12сз4696100 6.3 1014359
17:00+15сз348251 1.9 1015545
20:00+13юз358951 2.0 1015112
26 мая, чт
чт2623:00+11юз46937 0.1 101597
02:00+10юз489384 0.1 1016121
05:00+10зюз4119295 0.1 1016196
08:00+15зюз611797 0.3 1016512
11:00+18з9126055 0.1 10171538
14:00+19з8115684 0.4 10182085
17:00+18з7115916 0.2 10181636
20:00+15зюз5107312 0.2 1018337